Location: Herm
(49.4830°N, 2.4500°W)
Time: 18:40:43
(UTC+00:00)

VELOX 1 - Pass Details

Date: 26 October 2021
Orbit: 627 x 641 km, 98.3° (Epoch: 03 December)

Event Time Altitude Azimuth Distance (km) Brightness Sun altitude
Rises 18:36:05 0° 8° (N) 2,952 ? -6.8°
Reaches altitude 10° 18:38:23 10° 0° (N) 2,040 ? -7.2°
Maximum altitude 18:42:29 38° 293° (WNW) 985 ? -7.8°
Drops below altitude 10° 18:46:35 10° 226° (SW) 2,032 ? -8.5°
Sets 18:48:53 0° 218° (SW) 2,938 ? -8.8°
